Tracking 19212 objects as of 16-Jul-2018
HD Live streaming from Space Station
objects crossing your sky now

IRIDIUM 86

Track IRIDIUM 86 now!
10-day predictions
IRIDIUM 86 is classified as:


NORAD ID: 25528
Int'l Code: 1998-066B
Perigee: 782.6 km
Apogee: 787.0 km
Inclination: 86.4 °
Period: 100.4 minutes
Semi major axis: 7155 km
RCS: 3.9322 m2 (large)
Launch date: November 6, 1998
Source: United States (US)
Launch site: AIR FORCE WESTERN TEST RANGE (AFWTR)

Spare; stored in 667 km storage orbit, not raised to 780 km operational orbit until needed
aabbcc
Your satellite tracking list
Your tracking list is empty




NASA's NSSDC Master Catalog

Two Line Element Set (TLE):
1 25528U 98066B   18196.53776372 +.00000016 +00000-0 -14468-5 0  9992
2 25528 086.3966 185.3448 0003032 099.8354 260.3185 14.34220648035514
Source of the keplerian elements: AFSPC